Regional Weather Roundup
Issued by NWS

Home | Current Version | Previous Version | Graphics & Text | Print | Product List | Glossary On
Versions: 1 2 3 4 5 6 7 8 9 10 11 12 13 14 15 16 17 18 19 20 21 22 23 24 25 26 27 28 29 30 31 32 33 34 35 36 37 38 39 40 41 42 43 44 45 46 47 48 49 50
000
ASUS45 KSLC 242310
RWRUT

UTAH REGIONAL WEATHER ROUNDUP
NATIONAL WEATHER SERVICE SALT LAKE CITY UT
500 PM MDT FRI APR 24 2015

UTZ001>011-023>025-250000-

NORTHERN UTAH

CITY           SKY/WX    TMP DP  RH WIND       PRES   REMARKS
BRIGHAM CITY   CLOUDY    59  37  43 W5        29.68R
HILL AFB       CLOUDY    57  39  51 NW12      29.69R
LOGAN          CLOUDY    56  41  57 W21G28    29.67R
OGDEN          CLOUDY    56  40  55 NW7       29.68R
PROVO AIRPORT  PTSUNNY   57  41  54 SW22G30   29.72R
SALT LAKE CITY CLOUDY    61  36  39 E13       29.70R
VERNAL         CLOUDY    59  28  30 SE13G24   29.69R
WENDOVER       CLOUDY    63  32  31 W14G23    29.66S
HEBER CITY     RAIN      48  36  61 SW18G35   29.75R
WEST JORDAN    CLOUDY    55  45  67 N7        29.70S

$$

UTZ012>022-026-027-250000-

SOUTHERN/CENTRAL UTAH

CITY           SKY/WX    TMP DP  RH WIND       PRES   REMARKS
BLANDING       MOSUNNY   62  22  21 SW16      29.85S
BRYCE CANYON   PTSUNNY   54  28  36 SW16G30   29.85S
CEDAR CITY     MOSUNNY   62  29  28 SW28G38   29.78S
DELTA          CLOUDY    62  34  34 SW25G38   29.70F
HANKSVILLE     MOSUNNY   72  25  17 SW21      29.69S
MILFORD        PTSUNNY   66  31  27 SW22G38   29.73F
MOAB/CYNLANDS  PTSUNNY   72  21  14 SW22G31   29.65F
PRICE          MOSUNNY   65  23  20 W6        29.70F
ST GEORGE      CLOUDY    73  34  23 SW18G31   29.73F

$$

REGIONAL REPORTS     COLORADO/ARIZONA

CITY           SKY/WX    TMP DP  RH WIND       PRES   REMARKS
CRAIG, CO      PTSUNNY   59  30  33 SW20      29.72F
GRAND JUNCTION CLOUDY    63  26  24 E8G18     29.70S
RIFLE          CLOUDY    54  34  46 E13       29.78F
MONTROSE       CLOUDY    57  25  29 SE9       29.80F
CORTEZ         LGT RAIN  55  28  35 N10       29.83R
PAGE, AZ       LGT RAIN  68  28  22 S7        29.75F
GRAND CANYON   CLOUDY    54  33  45 W18G32    29.91F
KINGMAN        SUNNY     70  35  27 SW28G36   29.85F
FLAGSTAFF      LGT RAIN  39  38  96 W12       29.99S FOG     WCI  32

$$

REGIONAL REPORTS    NEVADA/IDAHO/WYOMING

CITY           SKY/WX    TMP DP  RH WIND       PRES   REMARKS
LAS VEGAS, NV  MOSUNNY   76  36  23 SW24G37   29.66F
ELY            TSTM      38  35  89 W16       29.81R FOG     WCI  29
ELKO           LGT RAIN  43  38  82 W18G39    29.77R
POCATELLO, ID  PTSUNNY   50  39  66 W22       29.70F
BURLEY         CLOUDY    49  39  68 W14G21    29.71F
EVANSTON, WY   PTSUNNY   54  28  36 SW24G32   29.71S
ROCK SPRINGS   CLOUDY    43  37  79 S13       29.74F
KEMMERER       CLOUDY    52  34  50 SW21      29.71F

$$


USA.gov is the U.S. government's official web portal to all federal, state and local government web resources and services.